This demonstration page uses our WeatherBlox Daily Observations layout. Learn more.

Left ArrowRight Arrow

39.12711, -84.51439

Hourly Observations for June 9, 2015

Temp ( °F °C ) Dew Point ( °F °C ) Humidity (%) Winds ( mph kmh ) Pressure ( in mb ) Visibility ( mi km ) Precip ( " mm )
12:08 am 00:08 Cloudy with Light Rain 61 16 57 14 88 88 VRB 3 6 29.88 1012 9 14 0.00 0.00
12:53 am 00:53 Cloudy with Rain 60 15.6 59 15 96 96 SE 5 7 29.87 1012 5 8 0.12 3.05
1:53 am 01:53 Clear 58 14.4 57 13.9 97 97 Calm 29.82 1010 10 16 0.05 1.27
2:53 am 02:53 Clear 57 13.9 57 13.9 100 100 S 7 11 29.81 1010 10 16 0.00 0.00
3:53 am 03:53 Clear 57 13.9 56 13.3 96 96 SSW 6 9 29.81 1010 9 14 0.00 0.00
4:53 am 04:53 Clear 57 13.9 57 13.9 100 100 SSW 5 7 29.82 1010 7 11 0.00 0.00
5:53 am 05:53 Clear 57 13.9 57 13.9 100 100 SSW 3 6 29.83 1010 7 11 0.00 0.00
6:48 am 06:48 Mostly Cloudy with Mist and Fog 55 13 55 13 100 100 S 3 6 29.88 1012 3 5 0.00 0.00
6:53 am 06:53 Mostly Cloudy with Mist and Fog 56 13.3 56 13.3 100 100 Calm 29.85 1011 5 8 0.00 0.00
7:34 am 07:34 Cloudy with Mist and Fog 61 16 61 16 100 100 Calm 29.88 1012 5 8 0.00 0.00
7:53 am 07:53 Cloudy with Mist and Fog 62 16.7 61 16.1 96 96 SSW 5 7 29.86 1011 4 6 0.00 0.00
8:53 am 08:53 Mostly Cloudy with Mist and Fog 65 18.3 63 17.2 93 93 VRB 5 7 29.87 1012 5 8 0.00 0.00
9:03 am 09:03 Partly Cloudy with Mist and Fog 64 18 63 17 94 94 SW 5 7 29.88 1012 5 8 0.00 0.00
9:53 am 09:53 Hazy 68 20 64 17.8 87 87 VRB 5 7 29.88 1012 6 10 0.00 0.00
10:53 am 10:53 Sunny 71 21.7 65 18.3 81 81 Calm 29.87 1012 10 16 0.00 0.00
11:53 am 11:53 Sunny 75 23.9 62 16.7 64 64 VRB 3 6 29.87 1012 10 16 0.00 0.00
12:53 pm 12:53 Sunny 77 25 61 16.1 58 58 Calm 29.86 1011 10 16 0.00 0.00
1:53 pm 13:53 Partly Cloudy 80 26.7 60 15.6 51 51 VRB 7 11 29.85 1011 10 16 0.00 0.00
2:53 pm 14:53 Mostly Sunny 80 26.7 61 16.1 52 52 WSW 6 9 29.84 1011 10 16 0.00 0.00
3:53 pm 15:53 Mostly Sunny 81 27.2 60 15.6 49 49 WSW 6 9 29.83 1010 10 16 0.00 0.00
4:53 pm 16:53 Sunny 82 27.8 58 14.4 44 44 VRB 7 11 29.83 1010 10 16 0.00 0.00
5:38 pm 17:38 Sunny 82 28 59 15 45 45 WNW 9 15 29.83 1010 10 16 0.00 0.00
5:53 pm 17:53 Sunny 81 27.2 58 14.4 45 45 NW 8 13 29.83 1010 10 16 0.00 0.00
6:53 pm 18:53 Sunny 80 26.7 57 13.9 45 45 WNW 8 13 29.83 1010 8 13 0.00 0.00
7:53 pm 19:53 Sunny 78 25.6 58 14.4 50 50 NNW 7 11 29.83 1010 7 11 0.00 0.00
8:53 pm 20:53 Hazy 69 20.6 63 17.2 81 81 Calm 29.83 1010 6 10 0.00 0.00
9:53 pm 21:53 Clear 65 18.3 62 16.7 90 90 Calm 29.85 1011 7 11 0.00 0.00
10:53 pm 22:53 Clear 64 17.8 62 16.7 93 93 Calm 29.88 1012 7 11 0.00 0.00
11:53 pm 23:53 Clear with Mist and Fog 62 16.7 61 16.1 96 96 Calm 29.88 1012 6 10 0.00 0.00

Powered by AerisWeather